Location: Goettingen
(51.5300°N, 9.9433°E)
Time: 18:00:50
(UTC+01:00)

ISS - Pass Details

Date: 22 January 2020
Orbit: 415 x 421 km, 51.6° (Epoch: 18 January)

Event Time Altitude Azimuth Distance (km) Brightness Sun altitude
Rises 19:58:45 0° 242° (WSW) 2,359 0.9 -28.7°
Reaches altitude 10° 20:00:51 10° 238° (WSW) 1,496 -0.3 -29.0°
Enters shadow 20:01:13 13° 237° (WSW) 1,351 -0.6 -29.1°
